User: anonymous   Login
Location: Sun City Center
(27.6996°N, 82.3528°W)
Time: 09:17:08
(UTC-04:00)
Language:

Cosmos 2084 Rocket - Orbit

View from above orbital plane
View from above orbital plane
View from above satellite
View from above satellite

Ground track
Ground track

The orbit data is extracted from the following two-line orbital elements,

1 20666U 90055D   17264.93786585 +.00000066 +00000-0 +23738-4 0  9999
2 20666 062.7842 183.7370 0124963 118.8579 242.5123 14.91991140476144
Epoch (UTC): 21 September 2017 22:30:31
Eccentricity: 0.0124963
inclination: 62.7842°
perigee height: 504 km
apogee height: 679 km
right ascension of ascending node: 183.7370°
argument of perigee: 118.8579°
revolutions per day: 14.91991140
mean anomaly at epoch: 242.5123°
orbit number at epoch: 47614

The dashed part of the orbit path shows where the satellite is in the earth's shadow,  

DLR